When you browse on this site, cookies collect data to enhance your experience and personalize the content and advertising you see.
Visit our Privacy Policy to learn more. By continuing to use the site, you agree to this use of cookies and data.
  • In Österreich
  • Länderverzeichnis
  • Für 7 Tage
  • Wassertemperatur
  • Wetterkarte
  • News
  • Widgets
  • user-avatar
    Anmelden

    Stündliche Wetter Roscanvel

    Heute, 16 Dezember, Montag

    Zeit Temperatur Niederschläge Wind Luftdruck Luftfeuchtigkeit
    00:00 +9°C° 0 mm 6 m/S 750 mmHg 82%
    01:00 +8°C° 0.3 mm 5 m/S 750 mmHg 84%
    02:00 +8°C° 0.3 mm 5 m/S 750 mmHg 85%
    03:00 +7°C° 0.3 mm 4 m/S 749 mmHg 86%
    04:00 +7°C° 0.1 mm 4 m/S 749 mmHg 87%
    05:00 +7°C° 0.1 mm 4 m/S 749 mmHg 87%
    06:00 +8°C° 0.1 mm 3 m/S 749 mmHg 88%
    07:00 +7°C° 0.2 mm 4 m/S 749 mmHg 88%
    08:00 +8°C° 0.2 mm 4 m/S 749 mmHg 88%
    09:00 +8°C° 0.2 mm 4 m/S 749 mmHg 88%
    10:00 +8°C° 0.3 mm 4 m/S 749 mmHg 86%
    11:00 +10°C° 0.3 mm 4 m/S 749 mmHg 83%
    12:00 +10°C° 0.3 mm 3 m/S 749 mmHg 81%
    13:00 +10°C° 0 mm 3 m/S 748 mmHg 81%
    14:00 +9°C° 0 mm 3 m/S 748 mmHg 81%
    15:00 +9°C° 0 mm 3 m/S 747 mmHg 82%
    16:00 +9°C° 0 mm 2 m/S 747 mmHg 83%
    17:00 +8°C° 0 mm 2 m/S 747 mmHg 84%
    18:00 +9°C° 0 mm 1 m/S 747 mmHg 85%
    19:00 +9°C° 0.1 mm 1 m/S 747 mmHg 86%
    20:00 +8°C° 0.1 mm 1 m/S 747 mmHg 86%
    21:00 +8°C° 0.1 mm 1 m/S 747 mmHg 86%
    22:00 +8°C° 0.1 mm 1 m/S 747 mmHg 86%
    23:00 +8°C° 0.1 mm 1 m/S 747 mmHg 86%

    Morgen, 17 Dezember, Dienstag

    Zeit Temperatur Niederschläge Wind Luftdruck Luftfeuchtigkeit
    00:00 +8°C° 0.1 mm 1 m/S 747 mmHg 86%
    01:00 +7°C° 0 mm 2 m/S 747 mmHg 86%
    02:00 +8°C° 0 mm 2 m/S 747 mmHg 86%
    03:00 +8°C° 0 mm 2 m/S 747 mmHg 86%
    04:00 +7°C° 0 mm 2 m/S 748 mmHg 85%
    05:00 +7°C° 0 mm 2 m/S 748 mmHg 84%
    06:00 +7°C° 0 mm 2 m/S 748 mmHg 83%
    07:00 +7°C° 0 mm 2 m/S 749 mmHg 83%
    08:00 +7°C° 0 mm 2 m/S 750 mmHg 82%
    09:00 +7°C° 0 mm 2 m/S 751 mmHg 81%
    10:00 +8°C° 0 mm 2 m/S 751 mmHg 77%
    11:00 +9°C° 0 mm 2 m/S 751 mmHg 74%
    12:00 +10°C° 0 mm 3 m/S 751 mmHg 70%
    13:00 +10°C° 0 mm 3 m/S 751 mmHg 71%
    14:00 +10°C° 0 mm 3 m/S 751 mmHg 72%
    15:00 +10°C° 0 mm 3 m/S 752 mmHg 72%
    16:00 +8°C° 0 mm 4 m/S 752 mmHg 75%
    17:00 +7°C° 0 mm 4 m/S 752 mmHg 78%
    18:00 +6°C° 0 mm 4 m/S 753 mmHg 81%
    19:00 +6°C° 0.1 mm 5 m/S 753 mmHg 82%
    20:00 +5°C° 0.1 mm 6 m/S 753 mmHg 82%
    21:00 +5°C° 0.1 mm 6 m/S 754 mmHg 83%
    22:00 +5°C° 0 mm 6 m/S 754 mmHg 83%
    23:00 +5°C° 0 mm 6 m/S 754 mmHg 82%

    übermorgen, 18 Dezember, Mittwoch

    Zeit Temperatur Niederschläge Wind Luftdruck Luftfeuchtigkeit
    00:00 +5°C° 0 mm 6 m/S 754 mmHg 82%
    01:00 +5°C° 0 mm 6 m/S 754 mmHg 83%
    02:00 +5°C° 0 mm 6 m/S 754 mmHg 84%
    03:00 +5°C° 0 mm 6 m/S 754 mmHg 85%
    04:00 +5°C° 0 mm 7 m/S 754 mmHg 85%
    05:00 +5°C° 0 mm 7 m/S 753 mmHg 84%
    06:00 +5°C° 0 mm 8 m/S 753 mmHg 84%
    07:00 +6°C° 0 mm 9 m/S 753 mmHg 83%
    08:00 +6°C° 0 mm 10 m/S 753 mmHg 82%
    09:00 +7°C° 0 mm 10 m/S 752 mmHg 82%
    10:00 +8°C° 0 mm 11 m/S 752 mmHg 80%
    11:00 +9°C° 0 mm 12 m/S 751 mmHg 79%
    12:00 +9°C° 0 mm 13 m/S 750 mmHg 77%
    13:00 +9°C° 0.2 mm 13 m/S 749 mmHg 78%
    14:00 +9°C° 0.2 mm 13 m/S 748 mmHg 79%
    15:00 +10°C° 0.2 mm 13 m/S 747 mmHg 80%
    16:00 +9°C° 1.1 mm 13 m/S 747 mmHg 83%
    17:00 +9°C° 1.1 mm 13 m/S 746 mmHg 86%
    18:00 +9°C° 1.1 mm 13 m/S 746 mmHg 89%
    19:00 +9°C° 0.7 mm 13 m/S 746 mmHg 89%
    20:00 +10°C° 0.7 mm 13 m/S 746 mmHg 89%
    21:00 +10°C° 0.7 mm 13 m/S 746 mmHg 89%
    22:00 +10°C° 0.5 mm 13 m/S 746 mmHg 90%
    23:00 +10°C° 0.5 mm 12 m/S 745 mmHg 90%

    19 Dezember, Donnerstag

    Zeit Temperatur Niederschläge Wind Luftdruck Luftfeuchtigkeit
    00:00 +11°C° 0.5 mm 11 m/S 745 mmHg 91%
    01:00 +11°C° 0.2 mm 10 m/S 745 mmHg 90%
    02:00 +11°C° 0.2 mm 8 m/S 745 mmHg 89%
    03:00 +11°C° 0.2 mm 7 m/S 745 mmHg 88%
    04:00 +10°C° 0.1 mm 7 m/S 745 mmHg 89%
    05:00 +10°C° 0.1 mm 7 m/S 745 mmHg 90%
    06:00 +10°C° 0.1 mm 7 m/S 745 mmHg 91%
    07:00 +10°C° 0.1 mm 7 m/S 745 mmHg 90%
    08:00 +10°C° 0.1 mm 7 m/S 745 mmHg 90%
    09:00 +10°C° 0.1 mm 7 m/S 744 mmHg 90%
    10:00 +10°C° 0.3 mm 8 m/S 744 mmHg 87%
    11:00 +10°C° 0.3 mm 8 m/S 744 mmHg 83%
    12:00 +11°C° 0.3 mm 8 m/S 744 mmHg 80%
    13:00 +11°C° 0.2 mm 8 m/S 744 mmHg 80%
    14:00 +10°C° 0.2 mm 8 m/S 744 mmHg 81%
    15:00 +10°C° 0.2 mm 7 m/S 744 mmHg 82%
    16:00 +9°C° 0 mm 7 m/S 744 mmHg 84%
    17:00 +9°C° 0 mm 6 m/S 744 mmHg 87%
    18:00 +8°C° 0 mm 6 m/S 744 mmHg 89%
    19:00 +8°C° 0.1 mm 5 m/S 744 mmHg 89%
    20:00 +8°C° 0.1 mm 5 m/S 744 mmHg 89%
    21:00 +8°C° 0.1 mm 4 m/S 745 mmHg 89%
    22:00 +7°C° 0.1 mm 4 m/S 745 mmHg 89%
    23:00 +7°C° 0.1 mm 4 m/S 745 mmHg 89%

    20 Dezember, Freitag

    Zeit Temperatur Niederschläge Wind Luftdruck Luftfeuchtigkeit
    00:00 +7°C° 0.1 mm 4 m/S 745 mmHg 89%
    01:00 +7°C° 0.2 mm 4 m/S 745 mmHg 89%
    02:00 +7°C° 0.2 mm 4 m/S 745 mmHg 88%
    03:00 +8°C° 0.2 mm 3 m/S 745 mmHg 88%
    04:00 +7°C° 0.2 mm 4 m/S 745 mmHg 87%
    05:00 +6°C° 0.2 mm 4 m/S 745 mmHg 87%
    06:00 +6°C° 0.2 mm 4 m/S 745 mmHg 87%
    07:00 +6°C° 0 mm 4 m/S 745 mmHg 86%
    08:00 +6°C° 0 mm 4 m/S 745 mmHg 86%
    09:00 +7°C° 0 mm 5 m/S 745 mmHg 86%
    10:00 +8°C° 0.3 mm 5 m/S 745 mmHg 83%
    11:00 +9°C° 0.3 mm 6 m/S 745 mmHg 80%
    12:00 +10°C° 0.3 mm 6 m/S 745 mmHg 77%
    13:00 +9°C° 0.5 mm 6 m/S 744 mmHg 78%
    14:00 +9°C° 0.5 mm 6 m/S 744 mmHg 78%
    15:00 +9°C° 0.5 mm 6 m/S 744 mmHg 79%
    16:00 +9°C° 0.4 mm 5 m/S 744 mmHg 81%
    17:00 +8°C° 0.4 mm 5 m/S 744 mmHg 82%
    18:00 +8°C° 0.4 mm 4 m/S 744 mmHg 84%
    19:00 +7°C° 0.4 mm 4 m/S 744 mmHg 85%
    20:00 +7°C° 0.4 mm 4 m/S 744 mmHg 85%
    21:00 +7°C° 0.4 mm 4 m/S 745 mmHg 86%
    22:00 +7°C° 0.3 mm 5 m/S 745 mmHg 85%
    23:00 +7°C° 0.3 mm 5 m/S 746 mmHg 84%

    21 Dezember, Samstag

    Zeit Temperatur Niederschläge Wind Luftdruck Luftfeuchtigkeit
    00:00 +7°C° 0.3 mm 5 m/S 746 mmHg 84%
    01:00 +7°C° 0 mm 5 m/S 747 mmHg 84%
    02:00 +7°C° 0 mm 5 m/S 748 mmHg 85%
    03:00 +6°C° 0 mm 5 m/S 748 mmHg 85%
    04:00 +6°C° 0 mm 4 m/S 749 mmHg 86%
    05:00 +6°C° 0 mm 4 m/S 749 mmHg 86%
    06:00 +6°C° 0 mm 4 m/S 749 mmHg 86%
    07:00 +7°C° 0 mm 5 m/S 749 mmHg 86%
    08:00 +7°C° 0 mm 6 m/S 749 mmHg 86%
    09:00 +6°C° 0 mm 7 m/S 750 mmHg 86%
    10:00 +7°C° 0 mm 8 m/S 749 mmHg 85%
    11:00 +8°C° 0 mm 10 m/S 748 mmHg 84%
    12:00 +9°C° 0 mm 12 m/S 748 mmHg 84%
    13:00 +10°C° 0.8 mm 12 m/S 747 mmHg 87%
    14:00 +10°C° 0.8 mm 13 m/S 747 mmHg 90%
    15:00 +12°C° 0.8 mm 14 m/S 746 mmHg 93%
    16:00 +12°C° 0.3 mm 13 m/S 746 mmHg 90%
    17:00 +12°C° 0.3 mm 12 m/S 746 mmHg 88%
    18:00 +11°C° 0.3 mm 11 m/S 746 mmHg 86%
    19:00 +12°C° 0.9 mm 12 m/S 746 mmHg 84%
    20:00 +12°C° 0.9 mm 13 m/S 746 mmHg 82%
    21:00 +12°C° 0.9 mm 14 m/S 746 mmHg 81%
    22:00 +12°C° 0.2 mm 14 m/S 746 mmHg 79%
    23:00 +10°C° 0.2 mm 14 m/S 747 mmHg 77%
    Mehr zeigen